Flag for Peru Weather past 2 weeks in Arequipa, Arequipa, Peru

Now
54 °F

Clear.


Feels Like: 52 °F
Forecast: 51 / 74 °F
Wind: 6 mph from North

Location: Arequipa Airport


UV Index: 7 (High)

Visibility: 10 mi


Pressure: 30.33 "Hg

Humidity: 44%

Dew point: 32 °F

Location of ArequipaLocation

Historic Weather in Arequipa

°F

Arequipa temperature yesterday

Maximum temperature yesterday: 70 °F (at 12:00 PM)
Minimum temperature yesterday: 48 °F (at 5:00 AM)
Average temperature yesterday: 58 °F

Past Weeks' High & Low Weather Summary

 TemperatureHumidityPressure
High72 °F (Apr 15, 11:00 AM)82% (Apr 10, 6:00 PM)31.10 "Hg (Apr 10, 6:00 PM)
Low48 °F (Apr 13, 4:00 AM)18% (Apr 23, 10:00 AM)29.89 "Hg (Apr 21, 3:00 AM)
Average59 °F51%30.28 "Hg
* Reported Apr 8 10:00 PM — Apr 23 10:00 PM, Arequipa, Weather by CustomWeather, © 2014

Note: Actual official high and low records may vary slightly from our data, if they occured in-between our weather recording intervals... More about our weather records

Advertising

Historic Weather Conditions — Data for Previous 24 hours

 ConditionsComfort  
Time TempWeatherWind HumidityBarometerVisibility
10:00 PM
Apr 23
54 °FClear.3 mph51%30.33 "Hg10 mi
9:00 PM54 °FClear.5 mph51%30.33 "Hg10 mi
8:00 PM57 °FClear.7 mph55%30.33 "Hg10 mi
7:00 PM57 °FClear.No wind72%30.30 "Hg10 mi
6:00 PM59 °FClear.6 mph68%30.30 "Hg10 mi
5:00 PM63 °FPassing clouds.7 mph56%30.27 "HgN/A
4:00 PM64 °FPassing clouds.10 mph46%30.27 "HgN/A
3:00 PM66 °FSunny.13 mph40%30.27 "Hg10 mi
2:00 PM66 °FPassing clouds.14 mph35%30.27 "HgN/A
11:00 AM68 °FPassing clouds.8 mph21%30.33 "HgN/A
10:00 AM68 °FPassing clouds.8 mph18%30.33 "HgN/A
9:00 AM66 °FSunny.3 mph24%30.33 "Hg10 mi
8:00 AM63 °FSunny.No wind25%30.30 "Hg10 mi
7:00 AM54 °FSunny.6 mph30%30.30 "Hg10 mi
6:00 AM52 °FSunny.5 mph30%30.30 "Hg10 mi
5:00 AM52 °FClear.5 mph32%30.27 "Hg10 mi
4:00 AM50 °FClear.6 mph40%30.27 "Hg10 mi
3:00 AM50 °FClear.5 mph37%30.27 "Hg10 mi
2:00 AM52 °FClear.3 mph35%30.30 "Hg10 mi
1:00 AM50 °FClear.3 mph37%30.30 "Hg10 mi
12:00 AM52 °FClear.No wind38%30.30 "Hg10 mi
11:00 PM
Apr 22
55 °FClear.No wind31%30.30 "Hg10 mi
Weather by CustomWeather, © 2014

See weather overview